JAL2088 ROAH-RJOO

Flight info

Callsign JAL2088
Flight time 1h 37m
Altitude 41000
Route AMAMI Y53 MADOG Y753 IZUMI
Aircraft A359/M-VGDW/C

Departure

Time 2026-04-29 05:47
Airport Naha International Airport (ROAH)

Arrival

Time 2026-04-29 07:24
Airport Osaka Itami International Airport (RJOO)
Time Latitude Longitude Altitude Speed Heading
2026-04-29 05:27 26.20446 127.64942 27 ft 0 kts 27°
2026-04-29 05:28 26.20447 127.64942 27 ft 0 kts 27°
2026-04-29 05:28 26.20456 127.64948 27 ft 0 kts 27°
2026-04-29 05:29 26.20444 127.64942 27 ft 4 kts 29°
2026-04-29 05:29 26.20421 127.64927 26 ft 4 kts 28°
2026-04-29 05:29 26.20398 127.64914 26 ft 4 kts 14°
2026-04-29 05:29 26.20377 127.64912 26 ft 4 kts 337°
2026-04-29 05:30 26.20362 127.64922 26 ft 4 kts 293°
2026-04-29 05:30 26.20357 127.64947 25 ft 2 kts 268°
2026-04-29 05:30 26.20357 127.64933 26 ft 3 kts 267°
2026-04-29 05:30 26.20356 127.64908 26 ft 3 kts 267°
2026-04-29 05:31 26.20355 127.64882 25 ft 3 kts 267°
2026-04-29 05:31 26.20353 127.64854 26 ft 3 kts 267°
2026-04-29 05:31 26.20305 127.64611 27 ft 106 kts 267°
2026-04-29 05:31 26.20263 127.63577 27 ft 142 kts 267°
2026-04-29 05:32 26.20219 127.62450 27 ft 154 kts 267°
2026-04-29 05:32 26.20171 127.61219 27 ft 160 kts 267°
2026-04-29 05:32 26.20446 127.64941 27 ft 0 kts 27°
2026-04-29 05:36 26.20437 127.64936 27 ft 4 kts 28°
2026-04-29 05:36 26.20413 127.64922 27 ft 4 kts 26°
2026-04-29 05:37 26.20390 127.64912 26 ft 4 kts
2026-04-29 05:37 26.20371 127.64914 25 ft 4 kts 322°
2026-04-29 05:37 26.20359 127.64930 26 ft 4 kts 281°
2026-04-29 05:37 26.20357 127.64948 25 ft 0 kts 267°
2026-04-29 05:42 26.20357 127.64931 26 ft 4 kts 267°
2026-04-29 05:42 26.20354 127.64883 25 ft 8 kts 267°
2026-04-29 05:43 26.20351 127.64802 25 ft 13 kts 267°
2026-04-29 05:43 26.20352 127.64710 22 ft 5 kts 290°
2026-04-29 05:43 26.20370 127.64700 22 ft 3 kts 342°
2026-04-29 05:43 26.20410 127.64701 23 ft 10 kts 11°
2026-04-29 05:44 26.20501 127.64740 26 ft 17 kts 22°
2026-04-29 05:44 26.20626 127.64744 23 ft 19 kts 357°
2026-04-29 05:44 26.20770 127.64738 24 ft 22 kts 358°
2026-04-29 05:44 26.20898 127.64728 24 ft 11 kts 339°
2026-04-29 05:45 26.20907 127.64709 23 ft 1 kts 274°
2026-04-29 05:45 26.20904 127.64667 22 ft 12 kts 265°
2026-04-29 05:45 26.20898 127.64567 27 ft 9 kts 266°
2026-04-29 05:45 26.20872 127.64531 29 ft 5 kts 204°
2026-04-29 05:46 26.20837 127.64528 27 ft 0 kts 178°
2026-04-29 05:46 26.20619 127.64538 28 ft 71 kts 177°
2026-04-29 05:46 26.19884 127.64574 21 ft 140 kts 178°
2026-04-29 05:47 26.18760 127.64632 376 ft 169 kts 178°
2026-04-29 05:47 26.17602 127.64718 1288 ft 168 kts 176°
2026-04-29 05:47 26.16384 127.64829 2400 ft 182 kts 176°
2026-04-29 05:47 26.15094 127.64943 3605 ft 189 kts 176°
2026-04-29 05:48 26.13770 127.65069 4866 ft 192 kts 175°
2026-04-29 05:48 26.12431 127.65188 6049 ft 198 kts 176°
2026-04-29 05:48 26.11031 127.65259 7110 ft 211 kts 179°
2026-04-29 05:48 26.09495 127.65242 8083 ft 223 kts 181°
2026-04-29 05:49 26.07982 127.65234 9547 ft 211 kts 180°
2026-04-29 05:49 26.06511 127.65256 10643 ft 217 kts 179°
2026-04-29 05:49 26.04914 127.65300 11221 ft 245 kts 179°
2026-04-29 05:49 26.03110 127.65373 11769 ft 273 kts 178°
2026-04-29 05:50 26.01180 127.65868 12191 ft 300 kts 155°
2026-04-29 05:50 25.99499 127.67396 12668 ft 324 kts 129°
2026-04-29 05:50 25.98535 127.69665 13385 ft 338 kts 104°
2026-04-29 05:50 25.98466 127.72308 14244 ft 348 kts 81°
2026-04-29 05:51 25.99323 127.74835 15114 ft 355 kts 60°
2026-04-29 05:51 26.00671 127.77169 16005 ft 361 kts 54°
2026-04-29 05:51 26.02251 127.79331 16866 ft 367 kts 49°
2026-04-29 05:51 26.04003 127.81430 17740 ft 373 kts 46°
2026-04-29 05:52 26.05845 127.83533 18584 ft 378 kts 45°
2026-04-29 05:52 26.07695 127.85600 19380 ft 384 kts 45°
2026-04-29 05:52 26.09603 127.87711 20167 ft 389 kts 45°
2026-04-29 05:52 26.11542 127.89845 20942 ft 393 kts 45°
2026-04-29 05:53 26.13500 127.91993 21659 ft 398 kts 44°
2026-04-29 05:53 26.15480 127.94160 22353 ft 403 kts 44°
2026-04-29 05:53 26.17630 127.96218 22968 ft 408 kts 36°
2026-04-29 05:53 26.20020 127.97924 23634 ft 411 kts 31°
2026-04-29 05:54 26.22507 127.99565 24260 ft 415 kts 31°
2026-04-29 05:54 26.24991 128.01220 24843 ft 419 kts 31°
2026-04-29 05:54 26.27486 128.02898 25421 ft 423 kts 31°
2026-04-29 05:54 26.30020 128.04607 25985 ft 427 kts 31°
2026-04-29 05:55 26.32550 128.06316 26526 ft 431 kts 31°
2026-04-29 05:55 26.35129 128.08061 27063 ft 434 kts 31°
2026-04-29 05:55 26.37728 128.09820 27584 ft 438 kts 31°
2026-04-29 05:55 26.40354 128.11599 28099 ft 442 kts 31°
2026-04-29 05:56 26.42981 128.13380 28596 ft 445 kts 31°
2026-04-29 05:56 26.45644 128.15187 29081 ft 449 kts 31°
2026-04-29 05:56 26.48333 128.17012 29544 ft 452 kts 31°
2026-04-29 05:56 26.51035 128.18847 30003 ft 455 kts 31°
2026-04-29 05:57 26.53748 128.20690 30436 ft 458 kts 31°
2026-04-29 05:57 26.56466 128.22538 30856 ft 462 kts 31°
2026-04-29 05:57 26.59201 128.24399 31262 ft 465 kts 31°
2026-04-29 05:57 26.61982 128.26292 31646 ft 468 kts 31°
2026-04-29 05:58 26.64384 128.27928 31984 ft 470 kts 31°
2026-04-29 05:58 26.67179 128.29938 32331 ft 473 kts 35°
2026-04-29 05:58 26.69600 128.32270 32661 ft 476 kts 46°
2026-04-29 05:58 26.71767 128.35149 33038 ft 478 kts 52°
2026-04-29 05:59 26.73798 128.38055 33378 ft 480 kts 52°
2026-04-29 05:59 26.75878 128.41001 33698 ft 483 kts 51°
2026-04-29 05:59 26.77971 128.43952 34001 ft 486 kts 51°
2026-04-29 05:59 26.80086 128.46931 34297 ft 488 kts 51°
2026-04-29 06:00 26.82192 128.49900 34607 ft 490 kts 51°
2026-04-29 06:00 26.84312 128.52890 35013 ft 489 kts 51°
2026-04-29 06:00 26.86433 128.55883 35405 ft 489 kts 51°
2026-04-29 06:00 26.88543 128.58862 35785 ft 488 kts 51°
2026-04-29 06:01 26.90667 128.61847 36120 ft 488 kts 51°
2026-04-29 06:01 26.92969 128.64625 36419 ft 488 kts 43°
2026-04-29 06:01 26.95668 128.66946 36734 ft 488 kts 32°
2026-04-29 06:01 26.98600 128.68806 37066 ft 487 kts 27°
2026-04-29 06:02 27.01574 128.70575 37373 ft 487 kts 28°
2026-04-29 06:02 27.04596 128.72391 37652 ft 487 kts 28°
2026-04-29 06:02 27.07556 128.74181 37931 ft 487 kts 28°
2026-04-29 06:02 27.10541 128.75990 38205 ft 487 kts 28°
2026-04-29 06:03 27.13533 128.77805 38480 ft 487 kts 28°
2026-04-29 06:03 27.16518 128.79619 38742 ft 488 kts 28°
2026-04-29 06:03 27.19497 128.81430 38989 ft 488 kts 28°
2026-04-29 06:03 27.22461 128.83233 39240 ft 488 kts 28°
2026-04-29 06:04 27.25471 128.85066 39489 ft 488 kts 28°
2026-04-29 06:04 27.28451 128.86882 39718 ft 488 kts 28°
2026-04-29 06:04 27.31440 128.88704 39941 ft 488 kts 28°
2026-04-29 06:04 27.34426 128.90525 40161 ft 488 kts 28°
2026-04-29 06:05 27.37375 128.92325 40370 ft 488 kts 28°
2026-04-29 06:05 27.40368 128.94154 40579 ft 488 kts 28°
2026-04-29 06:05 27.43372 128.95990 40784 ft 488 kts 28°
2026-04-29 06:05 27.46349 128.97810 40957 ft 489 kts 28°
2026-04-29 06:06 27.52366 129.01493 41004 ft 496 kts 28°
2026-04-29 06:06 27.58406 129.05195 41000 ft 497 kts 28°
2026-04-29 06:07 27.64468 129.08915 40999 ft 496 kts 28°
2026-04-29 06:07 27.70538 129.12644 41000 ft 496 kts 28°
2026-04-29 06:08 27.76609 129.16380 41000 ft 496 kts 28°
2026-04-29 06:08 27.82676 129.20117 41000 ft 496 kts 28°
2026-04-29 06:09 27.88727 129.23850 40999 ft 496 kts 28°
2026-04-29 06:09 27.94756 129.27573 41001 ft 496 kts 28°
2026-04-29 06:10 28.00822 129.31324 41004 ft 496 kts 28°
2026-04-29 06:10 28.06889 129.35081 41001 ft 496 kts 28°
2026-04-29 06:11 28.12950 129.38839 40999 ft 496 kts 28°
2026-04-29 06:11 28.18979 129.42582 41001 ft 496 kts 28°
2026-04-29 06:12 28.25031 129.46344 41000 ft 496 kts 28°
2026-04-29 06:12 28.31083 129.50111 41001 ft 496 kts 28°
2026-04-29 06:13 28.37153 129.53894 41000 ft 496 kts 28°
2026-04-29 06:13 28.43193 129.57664 40999 ft 496 kts 28°
2026-04-29 06:14 28.49134 129.61595 40999 ft 496 kts 32°
2026-04-29 06:14 28.54899 129.65923 41000 ft 496 kts 34°
2026-04-29 06:15 28.60655 129.70267 41001 ft 496 kts 33°
2026-04-29 06:15 28.66443 129.74548 40999 ft 496 kts 33°
2026-04-29 06:16 28.72266 129.78817 41002 ft 496 kts 32°
2026-04-29 06:16 28.78036 129.83047 41000 ft 496 kts 33°
2026-04-29 06:17 28.83853 129.87322 41001 ft 496 kts 33°
2026-04-29 06:17 28.89641 129.91584 41000 ft 496 kts 33°
2026-04-29 06:18 28.95459 129.95875 41000 ft 496 kts 33°
2026-04-29 06:18 29.01242 130.00146 41002 ft 496 kts 33°
2026-04-29 06:19 29.07060 130.04448 41000 ft 496 kts 33°
2026-04-29 06:19 29.12849 130.08735 41001 ft 496 kts 33°
2026-04-29 06:20 29.18649 130.13035 41001 ft 496 kts 33°
2026-04-29 06:20 29.24416 130.17317 41002 ft 496 kts 33°
2026-04-29 06:21 29.30203 130.21620 41000 ft 496 kts 33°
2026-04-29 06:21 29.35992 130.25942 40999 ft 496 kts 33°
2026-04-29 06:22 29.41793 130.30264 40999 ft 496 kts 33°
2026-04-29 06:22 29.47582 130.34585 41001 ft 496 kts 33°
2026-04-29 06:23 29.53366 130.38910 41000 ft 496 kts 33°
2026-04-29 06:23 29.59148 130.43241 40999 ft 496 kts 33°
2026-04-29 06:24 29.64941 130.47587 41001 ft 496 kts 33°
2026-04-29 06:24 29.70696 130.51910 40999 ft 496 kts 33°
2026-04-29 06:25 29.76470 130.56254 41000 ft 496 kts 33°
2026-04-29 06:25 29.82240 130.60600 40999 ft 496 kts 33°
2026-04-29 06:26 29.87062 130.64237 41001 ft 496 kts 33°
2026-04-29 06:26 29.93607 130.69180 41001 ft 496 kts 33°
2026-04-29 06:27 29.98448 130.72842 41004 ft 496 kts 33°
2026-04-29 06:27 30.04177 130.77177 41001 ft 496 kts 33°
2026-04-29 06:28 30.09962 130.81566 41001 ft 496 kts 33°
2026-04-29 06:28 30.15727 130.85951 41001 ft 496 kts 33°
2026-04-29 06:29 30.21491 130.90339 40999 ft 496 kts 33°
2026-04-29 06:29 30.27264 130.94739 41002 ft 496 kts 33°
2026-04-29 06:30 30.35922 131.01348 41000 ft 496 kts 33°
2026-04-29 06:31 30.41677 131.05750 41000 ft 496 kts 33°
2026-04-29 06:31 30.47407 131.10140 40999 ft 496 kts 33°
2026-04-29 06:32 30.53160 131.14572 41000 ft 496 kts 33°
2026-04-29 06:32 30.58922 131.19003 40999 ft 496 kts 33°
2026-04-29 06:33 30.64674 131.23433 41001 ft 496 kts 33°
2026-04-29 06:33 30.70432 131.27878 41000 ft 496 kts 33°
2026-04-29 06:34 30.76179 131.32322 41002 ft 496 kts 33°
2026-04-29 06:34 30.81892 131.36746 41001 ft 496 kts 33°
2026-04-29 06:35 30.87648 131.41210 40999 ft 496 kts 33°
2026-04-29 06:35 30.93390 131.45669 40999 ft 496 kts 33°
2026-04-29 06:36 30.99147 131.50146 40999 ft 496 kts 33°
2026-04-29 06:36 31.04853 131.54591 40999 ft 496 kts 33°
2026-04-29 06:37 31.10593 131.59068 40999 ft 496 kts 33°
2026-04-29 06:37 31.16332 131.63552 41000 ft 496 kts 34°
2026-04-29 06:38 31.22057 131.68030 41002 ft 496 kts 34°
2026-04-29 06:38 31.27802 131.72532 41000 ft 496 kts 34°
2026-04-29 06:39 31.33538 131.77041 40999 ft 496 kts 34°
2026-04-29 06:39 31.39246 131.81517 40999 ft 496 kts 34°
2026-04-29 06:40 31.44978 131.86015 40999 ft 496 kts 34°
2026-04-29 06:40 31.50745 131.90552 41002 ft 496 kts 34°
2026-04-29 06:41 31.56473 131.95067 41000 ft 496 kts 34°
2026-04-29 06:41 31.62176 131.99570 41000 ft 496 kts 34°
2026-04-29 06:42 31.67884 132.04083 41001 ft 496 kts 34°
2026-04-29 06:42 31.73624 132.08629 40999 ft 496 kts 34°
2026-04-29 06:43 31.79337 132.13160 41002 ft 496 kts 34°
2026-04-29 06:43 31.85074 132.17716 41000 ft 496 kts 34°
2026-04-29 06:44 31.90755 132.22235 40999 ft 496 kts 34°
2026-04-29 06:44 31.96479 132.26795 41004 ft 496 kts 34°
2026-04-29 06:45 32.02190 132.31353 41001 ft 496 kts 34°
2026-04-29 06:45 32.07919 132.35932 40999 ft 496 kts 34°
2026-04-29 06:46 32.13134 132.41259 41001 ft 497 kts 50°
2026-04-29 06:46 32.17077 132.47924 41002 ft 496 kts 58°
2026-04-29 06:47 32.20656 132.54836 41000 ft 496 kts 59°
2026-04-29 06:47 32.24244 132.61814 41002 ft 496 kts 58°
2026-04-29 06:48 32.27864 132.68759 41000 ft 496 kts 58°
2026-04-29 06:48 32.31507 132.75706 41001 ft 496 kts 58°
2026-04-29 06:49 32.35029 132.82430 41000 ft 496 kts 58°
2026-04-29 06:49 32.38664 132.89388 41000 ft 496 kts 58°
2026-04-29 06:50 32.42267 132.96301 41001 ft 496 kts 58°
2026-04-29 06:50 32.45881 133.03248 41000 ft 496 kts 58°
2026-04-29 06:51 32.49497 133.10213 41002 ft 496 kts 58°
2026-04-29 06:51 32.53111 133.17187 41000 ft 496 kts 58°
2026-04-29 06:52 32.56705 133.24134 41002 ft 496 kts 58°
2026-04-29 06:52 32.60306 133.31107 41000 ft 496 kts 58°
2026-04-29 06:53 32.63907 133.38094 41001 ft 496 kts 58°
2026-04-29 06:53 32.67497 133.45116 41000 ft 496 kts 59°
2026-04-29 06:54 32.71005 133.52157 41000 ft 496 kts 59°
2026-04-29 06:54 32.74506 133.59218 41000 ft 496 kts 59°
2026-04-29 06:55 32.78013 133.66277 41001 ft 496 kts 59°
2026-04-29 06:55 32.81532 133.73361 41000 ft 496 kts 59°
2026-04-29 06:56 32.85009 133.80388 41000 ft 496 kts 59°
2026-04-29 06:56 32.88512 133.87458 41000 ft 496 kts 59°
2026-04-29 06:57 32.92026 133.94563 41000 ft 496 kts 59°
2026-04-29 06:57 32.95525 134.01659 41000 ft 496 kts 59°
2026-04-29 06:58 32.98991 134.08704 41001 ft 496 kts 59°
2026-04-29 06:58 33.02472 134.15793 41000 ft 496 kts 60°
2026-04-29 06:59 33.06130 134.22796 41001 ft 496 kts 52°
2026-04-29 06:59 33.11070 134.28547 41000 ft 496 kts 41°
2026-04-29 07:00 33.16305 134.33841 40847 ft 494 kts 40°
2026-04-29 07:00 33.18973 134.36511 40142 ft 495 kts 40°
2026-04-29 07:00 33.21618 134.39175 39319 ft 497 kts 40°
2026-04-29 07:00 33.24233 134.41827 38545 ft 499 kts 40°
2026-04-29 07:01 33.26864 134.44511 37764 ft 500 kts 40°
2026-04-29 07:01 33.29507 134.47219 36957 ft 501 kts 40°
2026-04-29 07:01 33.32164 134.49948 36121 ft 501 kts 40°
2026-04-29 07:01 33.34808 134.52666 35291 ft 502 kts 40°
2026-04-29 07:02 33.37451 134.55385 34403 ft 503 kts 40°
2026-04-29 07:02 33.40111 134.58123 33499 ft 504 kts 40°
2026-04-29 07:02 33.42792 134.60883 32609 ft 504 kts 40°
2026-04-29 07:02 33.45443 134.63615 31811 ft 503 kts 40°
2026-04-29 07:03 33.48046 134.66300 31080 ft 500 kts 40°
2026-04-29 07:03 33.50360 134.68688 30427 ft 497 kts 40°
2026-04-29 07:03 33.52971 134.71384 29754 ft 493 kts 40°
2026-04-29 07:03 33.55551 134.74052 29100 ft 488 kts 40°
2026-04-29 07:04 33.58120 134.76700 28444 ft 483 kts 40°
2026-04-29 07:04 33.60691 134.78955 27758 ft 480 kts 33°
2026-04-29 07:04 33.63490 134.81091 27141 ft 475 kts 32°
2026-04-29 07:04 33.66298 134.83160 26520 ft 470 kts 31°
2026-04-29 07:05 33.69053 134.85163 25889 ft 465 kts 31°
2026-04-29 07:05 33.71777 134.87140 25269 ft 461 kts 31°
2026-04-29 07:05 33.74541 134.89154 24619 ft 456 kts 31°
2026-04-29 07:05 33.77244 134.91136 23969 ft 452 kts 31°
2026-04-29 07:06 33.79921 134.93107 23321 ft 448 kts 31°
2026-04-29 07:06 33.82526 134.95032 22691 ft 444 kts 31°
2026-04-29 07:06 33.85143 134.96980 22030 ft 439 kts 32°
2026-04-29 07:06 33.87732 134.98907 21371 ft 435 kts 31°
2026-04-29 07:07 33.90320 135.00824 20697 ft 431 kts 31°
2026-04-29 07:07 33.92857 135.02701 20041 ft 427 kts 31°
2026-04-29 07:07 33.95346 135.04544 19385 ft 423 kts 31°
2026-04-29 07:07 33.97843 135.06395 18729 ft 419 kts 31°
2026-04-29 07:08 34.00339 135.08249 18065 ft 415 kts 31°
2026-04-29 07:08 34.01884 135.09397 17645 ft 412 kts 31°
2026-04-29 07:08 34.04260 135.11164 17015 ft 408 kts 31°
2026-04-29 07:08 34.06679 135.12966 16371 ft 404 kts 31°
2026-04-29 07:09 34.09052 135.14735 15732 ft 400 kts 31°
2026-04-29 07:09 34.11400 135.16486 15091 ft 396 kts 32°
2026-04-29 07:09 34.13730 135.18224 14436 ft 392 kts 32°
2026-04-29 07:09 34.16054 135.19959 13764 ft 389 kts 32°
2026-04-29 07:10 34.18240 135.21592 13127 ft 385 kts 32°
2026-04-29 07:10 34.20475 135.23263 12463 ft 382 kts 32°
2026-04-29 07:10 34.22420 135.24718 12021 ft 375 kts 32°
2026-04-29 07:10 34.24514 135.26367 11691 ft 363 kts 34°
2026-04-29 07:11 34.26609 135.28117 11338 ft 352 kts 34°
2026-04-29 07:11 34.28594 135.29772 11011 ft 342 kts 34°
2026-04-29 07:11 34.30512 135.31354 10695 ft 332 kts 34°
2026-04-29 07:11 34.32399 135.32905 10390 ft 323 kts 34°
2026-04-29 07:12 34.34230 135.34408 10105 ft 314 kts 34°
2026-04-29 07:12 34.36026 135.35882 9729 ft 308 kts 34°
2026-04-29 07:12 34.36601 135.36353 9589 ft 307 kts 34°
2026-04-29 07:12 34.38223 135.37684 9047 ft 297 kts 34°
2026-04-29 07:13 34.39928 135.39083 8506 ft 283 kts 34°
2026-04-29 07:13 34.41529 135.40398 8250 ft 285 kts 34°
2026-04-29 07:13 34.43177 135.41762 7941 ft 286 kts 34°
2026-04-29 07:13 34.44198 135.42810 7718 ft 287 kts 45°
2026-04-29 07:14 34.45558 135.45358 7366 ft 271 kts 63°
2026-04-29 07:14 34.46089 135.46617 7142 ft 262 kts 63°
2026-04-29 07:14 34.46938 135.48561 6879 ft 258 kts 62°
2026-04-29 07:14 34.47641 135.50117 6665 ft 261 kts 61°
2026-04-29 07:15 34.48776 135.52604 6437 ft 249 kts 61°
2026-04-29 07:15 34.49336 135.53828 6323 ft 244 kts 61°
2026-04-29 07:15 34.50144 135.55593 6116 ft 239 kts 61°
2026-04-29 07:15 34.50954 135.57359 5883 ft 235 kts 61°
2026-04-29 07:16 34.51997 135.59633 5536 ft 232 kts 61°
2026-04-29 07:16 34.52529 135.60794 5353 ft 230 kts 61°
2026-04-29 07:16 34.53295 135.62464 5092 ft 229 kts 61°
2026-04-29 07:16 34.54143 135.64080 4791 ft 226 kts 53°
2026-04-29 07:17 34.55364 135.65205 4573 ft 216 kts 25°
2026-04-29 07:17 34.56786 135.65542 4438 ft 203 kts
2026-04-29 07:17 34.58164 135.65525 4343 ft 194 kts 358°
2026-04-29 07:17 34.59504 135.65386 4304 ft 188 kts 351°
2026-04-29 07:18 34.60010 135.65241 4274 ft 183 kts 345°
2026-04-29 07:18 34.61099 135.64628 4229 ft 178 kts 328°
2026-04-29 07:18 34.62054 135.63657 4192 ft 177 kts 315°
2026-04-29 07:18 34.62917 135.62584 3997 ft 177 kts 313°
2026-04-29 07:19 34.63753 135.61527 3775 ft 174 kts 313°
2026-04-29 07:19 34.64600 135.60473 3538 ft 173 kts 313°
2026-04-29 07:19 34.65436 135.59452 3453 ft 171 kts 314°
2026-04-29 07:19 34.66267 135.58445 3431 ft 165 kts 314°
2026-04-29 07:20 34.67034 135.57515 3400 ft 145 kts 314°
2026-04-29 07:20 34.67717 135.56689 3413 ft 136 kts 314°
2026-04-29 07:20 34.68388 135.55876 3447 ft 137 kts 314°
2026-04-29 07:20 34.69068 135.55052 3449 ft 138 kts 314°
2026-04-29 07:21 34.69746 135.54231 3446 ft 139 kts 314°
2026-04-29 07:21 34.70443 135.53388 3253 ft 149 kts 314°
2026-04-29 07:21 34.71231 135.52432 2495 ft 169 kts 314°
2026-04-29 07:21 34.72082 135.51396 1864 ft 172 kts 314°
2026-04-29 07:22 34.72904 135.50388 1438 ft 163 kts 314°
2026-04-29 07:22 34.73676 135.49431 1006 ft 159 kts 313°
2026-04-29 07:22 34.74439 135.48500 786 ft 148 kts 314°
2026-04-29 07:22 34.75125 135.47691 660 ft 135 kts 314°
2026-04-29 07:23 34.75773 135.46923 512 ft 131 kts 314°
2026-04-29 07:23 34.76423 135.46135 318 ft 134 kts 314°
2026-04-29 07:23 34.77089 135.45328 149 ft 136 kts 314°
2026-04-29 07:23 34.77687 135.44602 51 ft 125 kts 314°
2026-04-29 07:24 34.78170 135.44031 55 ft 66 kts 316°
2026-04-29 07:24 34.78375 135.43798 50 ft 36 kts 325°
2026-04-29 07:24 34.78575 135.43700 49 ft 28 kts 346°
2026-04-29 07:24 34.78663 135.43691 51 ft 9 kts
2026-04-29 07:25 34.78729 135.43722 52 ft 12 kts 31°
2026-04-29 07:25 34.78793 135.43791 50 ft 11 kts 44°
2026-04-29 07:25 34.78839 135.43844 47 ft 8 kts 43°
2026-04-29 07:25 34.78845 135.43851 48 ft 0 kts 43°
2026-04-29 07:26 34.78848 135.43854 48 ft 2 kts 43°
2026-04-29 07:26 34.78867 135.43876 50 ft 6 kts 44°
2026-04-29 07:26 34.78893 135.43923 49 ft 8 kts 52°
2026-04-29 07:26 34.78929 135.43985 49 ft 9 kts 65°
2026-04-29 07:27 34.78954 135.44054 49 ft 10 kts 66°
2026-04-29 07:27 34.78963 135.44079 51 ft 4 kts 66°
2026-04-29 07:27 34.78967 135.44093 49 ft 0 kts 66°